カタログに戻る

ONEWEB-0372

運用中通信PO
NORAD 49298·PAYLOAD·🇬🇧 United Kingdom

打ち上げ Oct 14, 2021 から Vostochny Cosmodrome

Loading…

次のパス (今後24時間)

TLE

最新Source: CelesTrak SupGP

元期: Sep 14, 2026, 17:07 UTC

1 49298C 21090V   26257.71333333 -.00000932  00000+0 -22961-2 0  2576
2 49298  87.9135 256.5837 0002042  89.6847 301.9867 13.20768367    11

AllMySatでONEWEB-0372をリアルタイム追跡

Download on the App Store